Wetbulb
28.46 24.67 21.70 23.28 25.27 25.38 23.08 21.13 19.39 22.35 25.55 21.84 21.05 20.51 22.75 22.95 21.09 20.33 20.51 20.16 20.24 21.12 24.22 26.19 27.83 29.67 31.76 34.12 35.60 37.64 41.26 43.12 44.05 44.15 43.34 44.30 45.02 46.50 48.59 50.85 51.88 52.99 55.17 55.22
24.78 22.46 25.33 27.65 27.31 25.70 24.21 21.19 19.40 22.24 24.44 22.77 20.10 19.79 19.55 22.52 20.41 20.72 19.85 19.26 19.60 20.16 21.85 24.10 26.07 28.06 29.26 31.54 33.34 35.42 38.66 40.35 41.47 42.05 43.08 46.03 46.68 48.01 48.63 50.13 52.61 55.31 56.71 57.49
22.52 25.05 27.98 27.07 25.16 23.73 22.82 20.50 19.96 19.35 22.51 22.06 20.37 15.19 15.99 21.16 22.27 22.30 21.18 20.20 19.75 19.33 20.09 22.04 24.14 25.88 27.75 29.51 31.46 33.23 36.85 38.25 39.38 40.61 42.99 45.49 47.22 48.20 48.88 51.13 53.12 52.23 51.56 52.39
23.83 27.31 26.73 24.77 24.11 22.91 13.61 24.12 21.86 19.19 13.40 11.73 16.93 7.99 14.71 17.95 18.18 19.00 18.01 17.00 17.43 18.88 20.96 21.89 22.99 24.18 26.24 28.59 30.94 32.25 35.30 36.71 38.13 39.04 40.52 41.81 42.99 43.65 47.12 49.71 50.57 48.33 46.78 46.95
24.21 23.56 24.03 18.65 24.15 24.49 18.00 23.58 19.88 19.02 12.73 11.61 16.81 9.38 12.44 14.94 14.68 14.94 14.99 15.70 15.98 18.62 20.53 21.18 22.37 24.24 26.57 28.24 29.49 31.03 33.09 34.88 35.63 36.88 38.52 40.40 41.70 45.87 48.48 47.50 45.32 43.90 42.44 42.45
24.87 26.87 25.33 24.48 26.06 25.48 24.41 18.62 20.07 15.56 14.73 1.67 10.71 12.81 12.16 9.65 8.84 11.72 13.02 13.54 15.15 17.85 19.30 21.00 22.47 24.22 25.03 26.97 28.27 29.69 30.73 32.27 33.55 34.85 35.72 36.97 38.34 39.63 40.80 40.84 40.38 39.51 39.17 38.72
21.87 23.75 25.52 25.88 20.76 23.87 18.91 11.50 3.23 5.35 2.93 2.85 15.24 13.20 13.34 9.85 12.15 10.24 9.08 10.16 13.99 17.44 18.31 19.29 20.18 21.68 23.28 24.46 26.37 27.98 28.45 29.07 30.89 31.82 32.27 33.61 35.26 35.41 35.93 35.98 35.59 35.45 35.50 34.41
10.44 13.64 20.24 24.44 17.87 12.60 17.99 8.91 4.72 0.43 0.25 4.81 15.40 9.50 14.68 12.02 10.31 6.77 8.38 8.14 15.88 16.02 17.50 18.35 19.91 21.19 22.17 23.45 25.27 26.15 26.60 26.98 28.53 29.46 29.56 30.76 31.48 32.01 32.59 32.78 33.00 32.69 32.86 32.35
7.83 12.63 24.19 23.29 23.20 20.31 17.17 11.97 17.28 2.69 4.56 3.89 10.26 15.91 14.21 16.53 14.66 10.61 6.78 13.07 12.96 14.45 16.12 17.47 19.46 20.66 21.48 22.36 24.16 24.97 25.35 25.91 26.65 27.20 27.75 27.86 28.63 28.88 28.69 29.74 30.67 30.56 31.22 31.65
14.66 10.87 22.67 22.94 23.05 22.93 20.19 21.03 8.79 6.73 -1.88 -2.58 6.49 11.19 13.76 11.44 10.31 11.11 6.78 10.82 12.45 14.28 15.30 17.02 18.28 19.43 20.92 22.07 23.88 24.59 25.17 25.22 25.66 25.82 26.21 25.93 25.92 26.60 26.73 26.48 26.05 26.64 27.26 28.05
17.01 13.94 17.14 20.26 7.69 9.66 14.86 12.71 14.84 12.04 9.12 0.75 1.05 7.15 11.26 10.70 9.09 7.76 8.34 12.41 11.47 13.89 14.53 16.06 17.32 18.24 19.75 21.06 22.54 23.83 24.08 24.16 24.73 24.88 24.76 24.46 24.55 24.16 23.76 23.82 24.49 24.34 24.78 25.27
21.72 11.02 7.70 10.57 9.92 17.57 16.96 6.90 8.02 5.27 4.35 8.34 7.53 6.07 8.46 10.13 8.61 9.99 11.93 13.15 14.25 15.35 14.67 15.13 15.46 15.70 16.78 18.38 19.81 22.35 23.27 23.35 24.24 24.89 24.30 23.70 23.53 23.05 22.24 21.79 22.31 23.59 22.67 23.12
21.25 17.14 9.21 13.32 16.15 19.00 10.76 14.02 13.46 9.69 8.60 -0.31 2.89 11.25 7.17 6.76 8.31 10.64 9.86 11.70 13.03 14.96 13.24 11.54 11.22 12.68 12.59 17.01 18.76 21.60 22.37 23.08 23.98 24.02 23.58 23.18 22.77 22.26 21.70 21.45 21.92 22.09 21.64 21.14
25.87 14.44 12.27 13.06 12.75 3.26 5.81 9.95 14.77 12.25 -1.96 1.62 3.40 8.31 13.13 9.02 4.56 6.41 8.20 10.26 11.40 11.23 8.04 8.54 9.05 10.01 13.28 16.14 18.66 19.96 21.48 23.15 23.56 23.33 22.81 22.07 22.39 22.70 22.65 22.78 22.47 22.18 21.77 20.56
21.32 10.37 8.14 7.81 -1.07 2.33 5.33 10.60 10.92 8.91 3.77 7.71 4.74 0.64 12.07 6.99 1.61 0.44 5.36 8.11 8.49 7.79 6.86 7.66 8.18 10.18 12.60 17.06 18.90 19.87 20.69 21.54 22.21 22.24 22.05 21.76 22.48 22.75 22.70 22.47 22.49 22.69 22.44 22.22
20.06 11.05 12.07 11.65 0.77 1.52 10.87 13.19 11.56 9.68 1.82 3.42 -4.65 4.46 3.23 0.35 -5.25 -1.13 1.33 4.46 4.18 4.69 6.24 8.49 11.52 12.28 14.78 16.78 18.30 18.44 19.43 20.63 21.68 20.82 20.69 21.92 22.23 22.40 22.18 22.16 21.99 21.92 21.59 21.58
16.84 14.30 7.70 8.16 6.99 9.44 6.84 4.41 4.81 1.68 -0.82 8.59 8.52 13.01 -6.91 4.96 6.46 0.02 -0.08 -0.06 1.37 4.17 3.98 6.01 8.69 12.91 16.31 17.62 19.99 18.73 19.60 21.17 20.51 20.20 20.80 21.14 20.90 20.31 20.44 21.42 21.52 20.90 20.77 21.40
15.85 9.75 10.30 8.50 4.44 6.28 12.91 -5.29 2.39 9.60 7.77 4.89 3.73 1.04 1.20 1.41 -0.02 -0.97 -1.59 -0.89 0.26 1.13 5.09 8.23 11.25 14.05 15.18 18.21 18.51 19.39 19.57 19.27 19.28 19.11 19.32 19.78 19.66 19.01 19.20 19.13 19.03 19.23 19.87 20.13
18.02 13.50 6.83 7.08 8.54 14.56 14.95 7.48 12.40 15.37 18.13 9.47 9.91 -0.57 -3.19 -4.81 -0.51 6.35 -5.83 -4.72 2.49 4.18 4.53 4.45 7.04 10.17 15.37 15.59 17.51 17.85 17.82 18.30 17.78 17.17 17.51 18.25 18.85 18.13 17.75 17.02 17.18 18.15 18.65 18.54
23.34 17.53 9.59 12.89 3.93 6.65 14.06 8.93 12.55 10.37 15.76 9.67 11.53 6.93 5.27 13.61 6.91 8.48 -2.65 -5.43 -1.70 -0.66 2.13 5.07 10.04 12.96 14.89 15.44 17.61 16.81 16.15 16.14 15.56 16.18 16.39 17.27 17.63 17.16 16.24 16.30 16.13 16.93 17.55 17.00
17.65 18.09 10.06 11.69 8.27 12.19 12.93 15.38 18.96 14.03 20.87 9.01 12.70 10.42 13.82 12.86 11.15 0.57 3.50 -1.92 -1.06 2.52 4.02 7.21 7.54 7.80 8.80 12.11 15.32 14.71 14.48 13.86 15.28 16.10 16.04 15.76 15.67 15.12 15.15 14.92 14.99 14.95 14.96 14.65
12.39 11.19 9.06 12.07 10.62 11.44 16.02 18.52 17.71 19.19 5.43 8.42 10.59 12.72 14.50 3.88 -3.94 -1.41 1.92 4.01 5.01 4.79 6.82 10.43 9.11 10.12 11.41 14.08 14.51 13.03 12.23 13.45 13.88 14.16 13.52 12.92 13.01 15.24 13.90 11.94 12.75 12.24 12.20 11.73
14.67 18.36 14.35 15.98 16.98 16.22 19.54 17.37 13.65 7.76 13.62 9.55 16.18 13.99 18.30 9.80 6.66 7.15 7.68 8.16 9.64 9.70 10.16 11.37 10.12 10.33 10.66 11.49 12.47 11.17 11.00 11.53 10.69 9.90 8.04 9.44 11.70 13.63 13.29 11.39 10.90 10.96 10.28 10.53
18.93 20.41 17.96 18.54 19.52 20.16 18.73 19.34 11.48 13.46 17.78 18.48 21.20 19.97 18.83 15.24 10.99 9.82 9.98 9.43 10.14 11.00 10.79 10.93 9.51 8.60 8.43 8.81 12.04 11.76 10.63 9.94 5.86 6.08 7.25 8.10 9.33 10.30 10.83 12.86 12.09 10.61 9.61 9.24
21.90 21.25 20.25 19.54 23.27 17.72 21.53 21.29 25.59 17.75 15.85 19.68 19.72 20.24 19.95 15.77 11.90 12.10 12.23 11.91 11.66 11.72 11.28 10.10 9.47 9.20 8.58 8.06 8.07 6.96 8.51 6.74 7.28 7.28 7.68 8.80 9.21 8.60 9.65 10.90 10.82 11.18 10.67 11.16
22.69 23.21 22.98 23.82 25.95 24.46 25.72 24.12 24.79 22.18 20.94 20.76 20.57 18.11 19.23 17.88 14.94 13.90 13.51 13.93 12.81 11.39 10.35 8.95 8.18 7.67 7.12 6.23 5.95 4.41 4.70 5.94 6.98 7.95 7.82 7.66 8.41 7.59 8.69 8.98 10.01 17.31 18.68 18.44
MSLP
1020.37 1020.80 1021.18 1021.57 1022.06 1022.10 1022.26 1022.24 1021.42 1020.91 1020.78 1021.42 1020.98 1021.06 1021.38 1022.06 1022.46 1022.75 1022.87 1023.18 1022.95 1022.39 1021.90 1021.30 1020.51 1019.41 1018.05 1016.93 1015.93 1014.93 1013.76 1013.05 1012.59 1012.02 1011.57 1011.13 1010.90 1010.97 1010.97 1010.84 1010.19 1009.78 1009.81 1010.04
1020.99 1020.78 1020.82 1021.26 1021.70 1021.81 1021.95 1021.79 1021.36 1020.76 1020.73 1021.15 1020.76 1020.61 1021.19 1021.87 1022.46 1023.00 1023.35 1023.58 1023.31 1022.60 1021.89 1021.36 1020.72 1019.83 1018.51 1017.47 1016.59 1015.33 1014.40 1013.60 1013.07 1012.70 1012.39 1011.86 1011.36 1010.69 1010.20 1009.93 1009.61 1009.45 1009.48 1009.50
1020.88 1020.60 1020.84 1021.19 1021.51 1021.80 1021.74 1021.66 1021.39 1021.33 1020.80 1020.75 1021.27 1020.86 1021.21 1021.73 1022.22 1022.69 1023.34 1023.81 1023.63 1023.15 1022.30 1021.58 1020.89 1020.10 1018.95 1017.82 1016.94 1015.85 1014.83 1014.17 1013.59 1013.06 1012.44 1011.89 1011.28 1010.82 1010.26 1009.96 1009.70 1009.74 1009.95 1009.38
1020.88 1020.66 1021.04 1021.27 1021.67 1022.26 1022.12 1021.30 1021.81 1021.45 1022.00 1022.04 1022.11 1022.10 1021.35 1021.89 1022.49 1022.91 1023.58 1023.75 1023.66 1023.20 1022.62 1022.01 1021.19 1020.11 1019.10 1018.26 1017.41 1016.40 1015.33 1014.72 1014.03 1013.53 1012.86 1012.19 1011.76 1011.26 1010.56 1010.19 1010.03 1010.28 1010.14 1009.76
1020.76 1020.99 1021.43 1021.73 1021.88 1022.43 1022.14 1021.80 1022.02 1022.06 1022.54 1022.94 1022.58 1023.37 1021.62 1022.37 1023.09 1023.68 1023.97 1024.09 1023.88 1023.40 1022.81 1022.05 1021.33 1020.46 1019.57 1018.69 1017.80 1016.92 1015.92 1015.20 1014.68 1014.05 1013.44 1012.70 1011.94 1011.27 1010.50 1010.77 1010.46 1010.71 1010.57 1010.16
1021.38 1021.45 1021.84 1022.00 1022.20 1022.45 1022.84 1022.47 1022.34 1022.79 1023.33 1023.61 1022.96 1023.38 1022.32 1023.30 1024.34 1024.63 1024.90 1024.82 1024.32 1023.51 1022.87 1022.25 1021.57 1020.62 1019.68 1018.88 1018.09 1017.07 1016.24 1015.64 1015.21 1014.64 1014.00 1013.39 1012.88 1012.16 1011.58 1011.46 1011.19 1011.43 1011.15 1010.91
1022.19 1022.09 1022.41 1022.72 1022.99 1023.09 1023.89 1023.72 1023.85 1024.06 1024.62 1023.86 1023.07 1023.40 1022.22 1023.62 1024.69 1025.56 1025.72 1025.29 1024.67 1023.88 1023.01 1022.22 1021.40 1020.52 1019.73 1019.06 1018.37 1017.66 1017.02 1016.26 1015.73 1015.21 1014.72 1014.18 1013.57 1013.12 1012.90 1012.53 1012.58 1012.51 1012.47 1012.39
1024.23 1023.26 1023.10 1023.65 1024.26 1024.68 1025.19 1025.54 1026.42 1027.25 1026.70 1024.89 1023.27 1022.88 1022.34 1023.60 1024.64 1025.74 1026.04 1025.59 1024.74 1024.00 1023.34 1022.55 1021.81 1021.11 1020.44 1019.67 1018.88 1018.22 1017.53 1016.94 1016.41 1015.91 1015.50 1015.08 1014.45 1014.00 1013.80 1013.69 1013.70 1013.66 1013.64 1013.45
1025.35 1024.35 1023.74 1023.99 1024.47 1025.22 1025.44 1026.28 1026.67 1027.47 1027.37 1026.56 1023.14 1022.09 1022.70 1023.83 1025.05 1025.74 1025.92 1025.31 1024.87 1024.27 1023.52 1022.80 1022.09 1021.46 1020.86 1020.33 1019.63 1018.92 1018.19 1017.65 1017.14 1016.74 1016.32 1015.91 1015.43 1015.11 1014.82 1014.62 1014.62 1014.67 1014.62 1014.52
1025.14 1024.94 1024.26 1024.57 1024.90 1025.41 1025.79 1026.63 1027.31 1027.84 1027.92 1026.99 1023.76 1022.94 1023.05 1024.25 1025.56 1025.82 1025.96 1025.71 1025.31 1024.80 1024.11 1023.36 1022.67 1022.08 1021.42 1020.96 1020.35 1019.74 1019.10 1018.52 1018.02 1017.57 1017.22 1016.96 1016.55 1016.02 1015.71 1015.62 1015.68 1015.81 1015.86 1015.54
1025.18 1025.64 1025.12 1025.08 1026.10 1026.35 1026.72 1027.12 1027.74 1028.08 1028.33 1028.29 1026.81 1023.17 1023.40 1024.65 1025.81 1026.21 1026.25 1026.16 1025.98 1025.40 1024.85 1024.13 1023.41 1022.75 1022.13 1021.48 1020.81 1020.23 1019.75 1019.29 1018.79 1018.39 1018.16 1017.80 1017.40 1016.99 1016.77 1016.73 1016.81 1017.23 1016.98 1016.36
1024.67 1025.57 1025.91 1025.95 1026.72 1026.82 1027.28 1027.78 1028.38 1028.53 1028.66 1028.54 1028.23 1024.84 1023.69 1025.05 1026.03 1026.52 1026.66 1026.26 1026.06 1025.84 1025.59 1025.03 1024.19 1023.31 1022.72 1022.11 1021.49 1020.99 1020.60 1020.11 1019.60 1019.25 1018.93 1018.67 1018.40 1018.04 1017.70 1017.82 1018.34 1018.56 1017.66 1017.70
1024.34 1025.38 1026.45 1026.55 1027.49 1027.23 1027.85 1028.07 1028.49 1028.68 1028.87 1028.95 1028.77 1025.14 1024.55 1025.69 1026.59 1026.96 1027.06 1026.79 1026.52 1026.31 1026.27 1025.79 1024.91 1024.14 1023.55 1022.81 1022.28 1021.77 1021.38 1020.94 1020.51 1020.10 1019.82 1019.53 1019.48 1019.18 1019.24 1018.86 1019.76 1019.46 1019.48 1019.65
1024.08 1025.50 1026.49 1027.32 1027.48 1028.04 1028.48 1028.19 1028.51 1029.03 1029.47 1028.91 1028.39 1026.20 1024.94 1026.07 1027.06 1027.75 1027.72 1027.45 1027.19 1027.15 1027.04 1026.46 1025.71 1025.01 1024.27 1023.63 1023.02 1022.57 1022.18 1021.85 1021.51 1021.03 1020.71 1020.44 1020.47 1020.50 1020.52 1020.73 1020.61 1020.79 1021.23 1020.81
1024.60 1025.88 1026.82 1027.02 1027.95 1028.41 1028.20 1028.04 1028.38 1028.98 1028.55 1028.70 1028.02 1028.14 1026.61 1027.12 1027.96 1028.65 1028.66 1028.25 1027.89 1027.75 1027.60 1027.08 1026.36 1025.69 1024.79 1024.09 1023.67 1023.24 1022.97 1022.69 1022.43 1022.02 1021.79 1021.80 1021.79 1021.59 1021.61 1021.53 1021.73 1022.31 1022.06 1021.82
1025.09 1026.14 1027.17 1027.26 1028.06 1028.31 1028.01 1027.35 1027.82 1028.47 1028.54 1028.32 1028.03 1027.74 1027.37 1027.41 1028.23 1029.30 1029.59 1029.14 1028.68 1028.33 1028.17 1027.48 1026.89 1026.16 1025.41 1024.75 1024.50 1024.02 1023.79 1023.70 1023.43 1023.12 1022.97 1023.01 1022.83 1022.88 1022.75 1022.87 1022.82 1023.44 1023.68 1023.80
1025.30 1026.39 1027.39 1027.33 1027.16 1027.22 1026.81 1025.07 1026.05 1026.76 1027.05 1026.76 1027.12 1027.02 1028.03 1028.34 1028.51 1029.20 1029.80 1029.56 1029.41 1029.04 1028.50 1027.88 1027.45 1026.80 1026.07 1025.45 1025.00 1024.77 1024.58 1024.65 1024.40 1024.20 1024.20 1023.97 1024.03 1024.05 1024.18 1024.25 1024.65 1024.79 1025.20 1025.58
1025.24 1026.17 1026.99 1027.01 1026.37 1025.52 1023.36 1023.57 1024.22 1024.82 1024.58 1025.38 1026.06 1026.51 1027.44 1028.60 1028.68 1028.76 1029.49 1029.78 1029.80 1029.40 1028.98 1028.13 1027.75 1027.23 1026.62 1026.24 1025.79 1025.55 1025.46 1025.31 1025.17 1025.13 1024.98 1025.02 1024.95 1024.91 1025.03 1025.47 1025.84 1025.92 1026.08 1026.37
1024.66 1025.36 1026.40 1026.79 1026.28 1023.20 1022.17 1022.81 1023.04 1023.21 1022.33 1022.66 1024.53 1026.11 1026.91 1028.09 1028.45 1028.26 1027.97 1028.70 1029.10 1029.07 1028.73 1028.39 1027.99 1027.51 1027.09 1026.62 1026.34 1026.19 1026.05 1025.89 1026.04 1026.00 1025.84 1026.04 1026.01 1025.82 1025.89 1025.97 1026.70 1027.07 1027.07 1027.10
1024.44 1025.03 1026.06 1026.03 1025.39 1022.68 1020.54 1020.23 1020.69 1021.49 1021.45 1020.90 1022.50 1024.48 1025.70 1026.95 1027.74 1027.84 1027.43 1028.21 1028.47 1028.54 1028.50 1028.31 1027.92 1027.48 1027.17 1027.11 1026.95 1026.92 1026.95 1026.95 1026.84 1026.78 1026.82 1026.82 1026.72 1026.56 1026.86 1027.57 1027.75 1027.66 1027.66 1027.73
1024.20 1024.66 1025.13 1025.08 1024.08 1021.15 1018.96 1019.62 1020.49 1020.93 1020.18 1019.56 1021.01 1022.57 1023.82 1025.38 1025.76 1026.01 1026.77 1027.99 1028.00 1028.20 1028.29 1028.12 1027.98 1027.83 1027.45 1027.36 1027.31 1027.35 1027.33 1027.45 1027.45 1027.40 1027.41 1027.44 1027.39 1027.42 1027.83 1028.11 1028.15 1028.32 1028.45 1028.63
1022.04 1022.89 1023.43 1023.64 1022.56 1019.84 1018.30 1019.83 1019.53 1017.68 1018.28 1018.65 1019.85 1020.81 1022.12 1023.27 1025.04 1025.58 1026.28 1027.20 1027.64 1027.94 1028.18 1028.08 1028.24 1028.04 1027.75 1027.43 1027.39 1027.49 1027.69 1027.86 1027.86 1027.93 1028.06 1028.20 1028.34 1028.40 1028.57 1028.72 1028.89 1028.96 1029.27 1029.45
1020.39 1019.01 1019.35 1019.60 1017.46 1015.86 1016.42 1015.98 1016.14 1016.93 1017.38 1018.21 1018.45 1019.12 1020.18 1022.04 1023.55 1024.49 1025.27 1026.02 1026.49 1026.71 1026.95 1027.22 1027.43 1027.47 1027.42 1027.36 1027.35 1027.60 1027.93 1028.07 1028.26 1028.50 1028.76 1028.68 1028.64 1028.79 1028.96 1028.91 1029.06 1029.40 1029.71 1029.83
1018.14 1017.78 1017.77 1017.44 1014.78 1014.99 1015.06 1015.25 1016.16 1016.36 1016.52 1016.77 1017.08 1017.98 1019.08 1020.33 1022.07 1023.24 1024.06 1024.69 1024.97 1025.35 1025.76 1026.23 1026.88 1027.16 1027.23 1027.25 1027.36 1027.55 1028.04 1028.20 1028.33 1028.58 1028.86 1028.94 1029.01 1028.97 1028.78 1028.86 1029.20 1029.57 1029.82 1029.92
1016.77 1016.85 1016.06 1015.29 1013.72 1014.05 1013.69 1013.60 1013.89 1015.41 1015.94 1016.41 1016.94 1017.38 1018.14 1019.31 1020.80 1021.49 1022.54 1023.28 1023.88 1024.45 1025.16 1025.84 1026.31 1026.68 1026.94 1027.14 1027.46 1027.58 1027.78 1028.08 1028.62 1028.82 1028.97 1029.00 1029.06 1029.21 1029.40 1029.58 1029.75 1029.78 1029.84 1029.87
1014.94 1013.64 1013.83 1012.30 1011.52 1012.07 1011.70 1011.59 1012.46 1013.90 1014.83 1015.42 1016.07 1017.09 1017.68 1018.12 1019.04 1020.24 1021.07 1021.67 1022.47 1023.36 1024.24 1025.12 1025.80 1026.28 1026.47 1026.86 1027.32 1027.59 1027.68 1027.93 1028.25 1028.58 1028.96 1029.29 1029.47 1029.74 1029.94 1030.12 1029.99 1029.49 1029.28 1029.45
Wind_Speed
3 4 2 1 4 6 6 10 17 16 9 3 8 8 7 2 2 8 10 12 12 13 14 15 16 18 17 16 16 15 12 11 8 6 3 2 2 2 4 5 7 6 5 7
4 2 2 1 6 5 9 16 11 8 2 5 9 13 5 3 2 3 7 11 13 15 15 16 16 16 16 16 16 15 14 12 9 6 6 4 3 4 5 5 6 5 6 7
4 1 1 1 4 4 9 7 6 14 10 7 5 8 1 2 4 6 9 10 12 13 16 16 16 16 16 16 16 15 14 13 11 11 7 6 5 4 3 2 3 5 8 7
4 1 2 3 3 4 7 6 11 14 3 3 2 6 2 2 3 7 12 12 13 15 13 14 16 17 16 15 15 15 13 12 11 12 8 8 6 5 3 5 3 4 7 8
2 1 2 2 2 4 12 16 8 4 3 3 2 1 5 2 3 12 14 14 14 14 13 14 15 16 15 14 14 13 13 11 12 12 10 8 7 6 3 3 4 6 6 9
4 1 3 3 4 3 11 4 1 4 2 3 4 2 5 2 4 7 12 13 14 15 15 14 15 15 14 14 14 13 14 12 13 11 11 10 7 8 6 6 5 5 5 7
6 2 2 3 6 2 7 5 5 7 7 5 2 3 8 4 5 3 10 13 12 14 14 14 16 16 16 17 16 13 14 13 13 12 11 11 8 9 7 8 6 7 6 6
4 8 2 3 4 4 4 3 5 6 4 8 4 6 4 5 5 5 6 9 10 12 13 13 14 14 15 16 16 15 14 13 13 12 11 10 10 7 7 10 7 7 7 7
4 6 2 3 2 5 3 4 3 3 2 3 4 5 3 4 5 5 8 10 9 11 12 12 13 13 13 14 15 14 14 12 12 11 10 10 10 11 10 11 10 8 9 8
4 4 2 3 3 1 1 4 1 3 5 7 7 6 4 3 9 12 11 10 9 10 11 12 11 12 12 12 11 12 12 10 10 11 10 9 11 11 12 12 13 12 11 13
5 4 3 4 1 5 1 1 1 3 4 3 6 8 5 4 4 9 10 10 8 9 10 10 10 10 10 10 10 10 10 10 10 10 9 10 10 13 14 13 13 13 14 15
5 5 4 7 4 2 3 5 3 5 5 3 2 11 4 5 4 3 10 11 8 8 8 8 8 7 8 9 9 9 9 9 9 9 10 11 12 13 15 16 14 13 17 18
6 1 5 6 3 1 2 4 3 2 4 5 3 9 1 1 2 5 6 9 9 8 8 7 7 7 7 8 9 9 9 9 9 10 11 13 13 15 15 18 15 14 17 17
5 2 7 8 8 4 2 4 5 3 3 4 8 11 7 7 6 6 6 8 6 7 6 6 6 6 6 7 8 9 9 9 8 10 12 14 14 14 15 15 16 16 15 17
3 4 2 6 3 3 4 7 6 9 6 6 4 6 12 7 5 3 3 4 5 6 7 6 6 6 6 7 9 10 11 10 9 9 11 12 12 13 14 15 16 14 15 16
1 2 1 5 1 2 6 9 8 6 4 8 2 9 5 5 4 2 2 4 4 3 5 7 6 6 7 6 7 9 10 10 9 11 11 10 13 13 14 14 16 15 14 14
4 4 2 7 2 3 7 10 8 3 4 6 3 8 1 5 7 3 4 2 3 4 3 4 5 6 6 7 8 9 8 7 9 10 9 10 11 13 12 13 12 13 11 11
6 4 3 5 4 4 9 2 4 7 8 8 3 4 5 4 6 7 6 4 3 3 2 3 4 5 5 7 8 9 8 9 10 9 10 10 10 11 11 11 11 11 9 9
2 4 1 1 2 8 2 6 8 8 8 12 9 3 4 3 0 6 3 5 4 3 2 3 3 2 2 4 4 5 5 6 7 7 8 7 7 10 10 12 10 7 8 8
5 6 4 2 3 5 9 5 5 3 6 10 9 9 10 7 3 6 5 3 4 3 2 4 4 4 2 3 2 5 5 5 6 6 6 6 7 9 9 7 6 6 7 9
3 3 4 3 5 12 6 5 6 7 10 8 10 9 12 7 5 2 8 3 3 3 4 3 2 3 3 2 2 4 4 5 4 5 6 6 7 7 6 6 6 6 7 7
9 10 5 3 2 9 7 6 9 8 3 5 8 10 9 5 4 5 5 7 7 6 5 5 5 5 5 5 4 5 5 3 4 5 6 5 4 4 5 5 5 6 4 5
3 8 8 12 10 4 13 5 5 5 6 8 8 9 13 10 8 11 9 9 9 9 8 7 7 6 5 4 4 5 5 4 5 5 5 4 4 4 3 4 5 3 4 3
5 4 3 3 4 10 11 8 3 6 5 5 7 13 15 11 12 13 9 9 10 10 9 7 7 6 6 5 4 4 6 5 5 6 4 3 4 4 3 3 3 2 2 3
3 6 5 7 10 3 9 12 11 7 2 6 7 11 16 14 15 14 13 13 12 11 9 8 9 8 8 6 5 5 6 6 5 5 3 3 3 3 2 1 2 3 3 2
8 10 8 8 7 4 6 3 12 13 12 12 15 11 11 14 18 16 14 13 13 12 10 9 9 7 7 7 6 6 6 6 6 5 3 2 2 2 2 1 2 6 7 8
Wind_Direction
2 62 310 304 198 230 261 264 272 276 270 274 254 265 260 239 31 1 2 343 334 339 334 336 333 327 332 333 340 335 342 346 347 349 339 323 276 245 244 238 254 264 242 241
16 212 189 162 255 272 281 281 279 278 222 293 278 276 218 196 121 33 5 338 335 336 343 341 337 330 340 334 340 341 342 344 343 343 318 301 305 289 277 284 296 286 271 243
180 191 76 117 282 332 303 244 300 291 320 273 283 288 312 214 163 23 13 346 340 339 339 339 338 333 340 343 339 341 340 343 338 338 319 306 282 269 277 294 336 338 323 319
229 346 29 329 281 86 308 201 314 300 20 291 98 286 270 172 263 14 351 352 344 340 340 339 339 339 342 343 339 340 346 344 342 337 330 318 291 284 297 299 324 341 351 339
254 9 42 336 215 123 248 326 301 287 166 27 199 39 266 26 334 334 339 343 340 340 340 340 342 338 340 343 343 338 349 352 350 345 342 329 315 313 304 355 37 6 0 9
268 77 135 243 308 179 309 349 265 38 95 17 247 132 271 213 224 308 327 336 335 339 344 347 348 345 347 353 351 351 357 359 358 357 357 354 358 355 11 7 32 5 9 13
337 138 91 36 346 53 9 358 339 355 7 238 243 238 259 199 220 238 317 323 323 343 345 350 353 353 354 354 356 356 0 3 1 5 11 6 17 38 37 38 34 25 25 24
82 326 58 0 131 192 343 105 134 269 315 295 298 241 282 201 221 237 283 284 333 346 347 350 353 355 354 355 357 357 2 5 9 12 17 20 30 44 44 52 50 44 45 47
105 285 123 92 107 114 297 43 199 104 228 304 248 261 160 228 270 307 326 336 338 343 346 349 353 356 359 358 1 359 2 9 16 19 26 34 42 52 55 55 54 49 48 54
198 349 148 132 58 17 138 155 69 37 13 310 297 286 259 320 337 328 329 330 336 339 349 355 358 359 4 2 357 5 8 11 20 26 31 41 48 53 57 59 58 55 55 59
131 122 261 72 179 180 338 333 98 125 148 204 305 279 181 195 260 304 314 333 329 338 349 357 358 359 357 358 358 5 11 16 28 34 39 47 52 59 60 60 59 61 66 64
182 139 269 220 244 215 138 187 158 128 251 228 235 276 186 172 233 293 332 334 340 355 348 355 347 346 359 359 360 9 13 23 30 42 53 55 61 63 65 63 60 61 69 59
186 223 355 349 9 76 199 194 195 141 59 216 156 276 168 105 44 28 1 334 335 359 358 349 342 354 355 357 3 15 21 28 38 53 61 64 64 68 71 69 65 62 71 69
117 152 178 197 213 137 294 214 187 179 123 198 227 289 301 341 9 353 15 335 335 355 349 340 352 354 358 5 17 21 24 26 42 62 68 68 65 70 72 78 77 69 74 78
113 220 158 262 190 139 224 237 195 202 225 176 269 246 299 308 296 278 297 334 359 1 353 343 345 354 353 19 32 34 33 31 27 53 64 66 67 64 67 69 74 72 68 69
76 267 185 282 94 194 266 249 224 227 242 274 300 282 220 289 274 55 285 15 333 21 351 337 348 0 8 12 39 42 37 34 37 54 59 70 75 73 68 66 68 69 63 67
139 139 75 274 319 318 325 220 183 204 227 163 174 228 21 335 348 345 330 346 316 320 310 338 356 1 18 23 43 49 40 44 57 62 61 66 74 75 69 68 73 72 75 85
138 111 123 274 6 8 243 207 171 206 222 207 296 234 184 191 258 262 202 212 269 253 300 336 20 29 22 41 38 53 46 50 55 62 67 66 75 76 73 75 74 71 64 67
118 119 112 113 243 288 354 221 183 168 279 181 186 189 177 223 250 310 230 195 206 221 255 267 293 313 15 44 47 66 63 73 76 66 64 63 77 91 83 66 60 68 77 72
108 95 115 168 139 218 235 242 181 141 308 179 160 173 156 161 88 246 205 213 258 262 291 313 332 330 33 48 77 108 95 87 78 71 74 66 71 78 79 92 86 76 78 80
160 180 184 193 254 285 224 167 162 79 235 161 162 167 157 176 191 225 128 159 212 203 217 244 265 239 253 275 144 133 115 99 98 90 80 70 64 71 76 80 65 67 76 79
169 156 191 149 217 292 159 83 162 214 5 158 158 173 176 146 146 152 161 169 182 191 194 203 193 203 207 203 173 138 120 120 91 86 79 68 57 89 82 88 82 71 83 90
257 188 177 188 213 231 205 190 213 160 160 194 173 172 163 153 179 171 184 182 190 197 195 189 195 194 203 201 182 155 168 150 128 111 110 106 88 93 112 106 103 99 83 94
240 175 209 52 268 225 214 219 224 191 213 171 181 170 166 163 164 176 170 185 195 198 202 188 185 198 207 205 189 189 169 155 130 119 116 130 140 126 81 75 78 109 170 187
189 140 193 263 275 327 246 228 205 198 202 155 151 172 178 156 180 175 180 190 197 198 194 185 194 200 207 187 191 177 164 146 145 145 151 118 99 82 82 138 193 209 232 202
188 190 178 221 219 177 258 249 179 169 191 185 168 158 185 180 178 178 189 191 188 192 179 183 192 195 204 190 190 189 178 171 156 148 160 171 157 165 178 207 278 259 241 236